Location: Berg
(47.2344°N, 9.5296°E)
Time: 11:57:47
(UTC+00:00)

YAOGAN 1 - Pass Details

Date: 24 January 2021
Orbit: 618 x 620 km, 97.9° (Epoch: 06 March)

Event Time Altitude Azimuth Distance (km) Brightness Sun altitude
Rises 18:00:46 0° 166° (SSE) 2,885 5.9 -18.3°
Reaches altitude 10° 18:02:57 10° 167° (SSE) 1,983 5.1 -18.7°
Maximum altitude 18:07:16 84° 257° (WSW) 631 2.5 -19.4°
Drops below altitude 10° 18:11:38 10° 345° (NNW) 2,000 5.3 -20.1°
Sets 18:13:50 0° 347° (NNW) 2,911 6.1 -20.5°
